Flag for Greece Weather past 2 weeks in Ilioupoli, Greece

Now
73 °F

Passing clouds.


Feels Like: 75 °F
Forecast: 72 / 90 °F
Wind: 5 mph from East

Location: Eleftherios Venizelos International Airport

Current Time: Jul 24, 2014 at 6:06:05 AM

Latest Report: Jul 24, 2014 at 5:20 AM


Visibility: N/A

Pressure: 29.74 "Hg

Humidity: 74%

Dew point: 64 °F

Location of IlioupoliLocation

Historic Weather in Ilioupoli — Graph

°F

Ilioupoli temperature yesterday

Maximum temperature yesterday: 90 °F (at 1:50 PM)
Minimum temperature yesterday: 70 °F (at 3:50 AM)
Average temperature yesterday: 81 °F

Past Weeks' High & Low Weather Summary

 TemperatureHumidityPressure
High97 °F (Jul 10, 1:50 PM)89% (Jul 19, 10:50 PM)29.92 "Hg (Jul 19, 10:50 PM)
Low64 °F (Jul 13, 6:20 AM)12% (Jul 10, 1:20 PM)29.62 "Hg (Jul 11, 2:20 PM)
Average79 °F49%29.82 "Hg
* Reported Jul 9 5:50 AM — Jul 24 4:50 AM, Ilioupoli, Weather by CustomWeather, © 2014

Note: Actual official high and low records may vary slightly from our data, if they occured in-between our weather recording intervals... More about our weather records

Advertising

Ilioupoli weather history for previous 24 hours

 ConditionsComfort  
Time TempWeatherWind HumidityBarometerVisibility
4:50 AM
Jul 24
75 °FPassing clouds.3 mph69%29.71 "HgN/A
4:20 AM75 °FPassing clouds.3 mph61%29.71 "HgN/A
3:50 AM73 °FPassing clouds.3 mph61%29.71 "HgN/A
3:20 AM73 °FPassing clouds.2 mph61%29.71 "HgN/A
2:50 AM73 °FPassing clouds.6 mph61%29.74 "HgN/A
2:20 AM75 °FPassing clouds.2 mph54%29.74 "HgN/A
1:50 AM75 °FPassing clouds.2 mph54%29.74 "HgN/A
1:20 AM77 °FPassing clouds.5 mph51%29.74 "HgN/A
12:50 AM79 °FPassing clouds.2 mph48%29.74 "HgN/A
12:20 AM79 °FPassing clouds.6 mph45%29.74 "HgN/A
11:50 PM
Jul 23
81 °FPassing clouds.6 mph45%29.74 "HgN/A
11:20 PM81 °FPassing clouds.1 mph42%29.74 "HgN/A
10:50 PM81 °FPassing clouds.No wind45%29.74 "HgN/A
9:50 PM81 °FPassing clouds.6 mph62%29.74 "HgN/A
9:20 PM81 °FPartly sunny.7 mph58%29.71 "HgN/A
8:50 PM82 °FPartly sunny.8 mph51%29.71 "HgN/A
8:20 PM82 °FPartly sunny.9 mph51%29.71 "HgN/A
7:50 PM82 °FScattered clouds.12 mph48%29.71 "HgN/A
7:20 PM84 °FScattered clouds.13 mph45%29.71 "HgN/A
6:50 PM86 °FPassing clouds.13 mph40%29.71 "HgN/A
6:20 PM86 °FPassing clouds.16 mph35%29.71 "HgN/A
5:50 PM86 °FPassing clouds.17 mph35%29.68 "HgN/A
5:20 PM88 °FPassing clouds.17 mph33%29.68 "HgN/A
4:50 PM88 °FPassing clouds.20 mph35%29.68 "HgN/A
4:20 PM88 °FPassing clouds.17 mph33%29.68 "HgN/A
3:50 PM88 °FPassing clouds.17 mph38%29.68 "HgN/A
2:50 PM90 °FPassing clouds.16 mph33%29.68 "HgN/A
1:50 PM90 °FScattered clouds.13 mph36%29.71 "HgN/A
1:20 PM88 °FScattered clouds.14 mph35%29.71 "HgN/A
12:50 PM88 °FPassing clouds.13 mph38%29.71 "HgN/A
12:20 PM88 °FPassing clouds.12 mph40%29.71 "HgN/A
11:50 AM86 °FPassing clouds.7 mph43%29.71 "HgN/A
11:20 AM86 °FPassing clouds.9 mph43%29.71 "HgN/A
10:50 AM86 °FPassing clouds.5 mph40%29.71 "HgN/A
8:50 AM81 °FPassing clouds.5 mph51%29.71 "HgN/A
8:20 AM77 °FSunny.3 mph61%29.71 "Hg10 mi
7:50 AM75 °FSunny.1 mph65%29.71 "Hg10 mi
7:20 AM73 °FSunny.3 mph69%29.71 "Hg10 mi
6:50 AM72 °FClear.3 mph69%29.71 "Hg10 mi
6:20 AM73 °FClear.No wind65%29.71 "Hg10 mi
Weather by CustomWeather, © 2014

See weather overviewHow to use our weather pages